Regional Weather Roundup
Issued by NWS Spokane, WA

Home | Current Version | Previous Version | Text Only | Print | Product List | Glossary On
Versions: 1 2 3 4 5 6 7 8 9 10 11 12 13 14 15 16 17 18 19 20 21 22 23 24 25 26 27 28 29 30 31 32 33 34 35 36 37 38 39 40 41 42 43 44 45 46 47 48 49 50
000
NZUS01 KOTX 011210
RWROTX
EASTERN WASHINGTON/NORTHERN IDAHO ROUNDUP
NATIONAL WEATHER SERVICE, SPOKANE WA
400 AM PST SUN FEB 01 2015

Note: "fair" indicated few or no clouds below 12,000 feet with no
significant weather and/or obstructions to visibility.

...NORTHEAST WASHINGTON AND NORTHERN IDAHO PANHANDLE...

CITY           SKY/WX    TMP DP  RH WIND       PRES   REMARKS
SPOKANE INTL   CLOUDY    30  28  92 CALM      30.22F
SPOKANE DOWNTO CLOUDY    31  27  85 E3        30.25F
COEUR D ALENE  CLOUDY    30  27  86 E3        30.23S
DEER PARK      CLOUDY    31  27  85 NE7       30.24F WCI  24
SANDPOINT      CLOUDY    32  28  86 CALM      30.24F
BONNERS FERRY  CLOUDY    28  27  93 CALM      30.23F

...SOUTHEAST WASHINGTON AND SOUTHERN IDAHO PANHANDLE...

CITY           SKY/WX    TMP DP  RH WIND       PRES   REMARKS
WALLA WALLA    CLOUDY    35  32  88 S6        30.23F
PULLMAN/MOSCOW CLOUDY    32  28  85 E10       30.20F WCI  24
LEWISTON       CLOUDY    34  30  85 E7        30.24F WCI  28
LOWELL           N/A     30  27  88 NW3       30.30F

...COLUMBIA BASIN...

CITY           SKY/WX    TMP DP  RH WIND       PRES   REMARKS
EPHRATA        CLOUDY    35  31  85 N6        30.23F
MOSES LAKE     CLOUDY    35  31  85 N6        30.24F
TRI CITIES     CLOUDY    35  34  96 NW6       30.27F
HERMISTON      CLOUDY    36  32  85 SE5       30.25F
PENDLETON      CLOUDY    34  31  88 CALM      30.22S

...EAST SLOPES CASCADES...

CITY           SKY/WX    TMP DP  RH WIND       PRES   REMARKS
THE DALLES     CLOUDY    38  34  85 CALM      30.30S
YAKIMA         CLOUDY    36  33  89 W6        30.26S
ELLENSBURG     CLOUDY    35  31  85 S3        30.23R
WENATCHEE      CLOUDY    36  32  85 CALM      30.24F
OMAK           LGT SNOW  32  31  96 S5        30.25S FOG     WCI  27

...SOUTHERN BRITISH COLUMBIA...

CITY           SKY/WX    TMP DP  RH WIND       PRES   REMARKS
PENTICTON      FLURRIES  34  30  86 S14       30.21F WCI  24
CRANBROOK      CLOUDY    28  19  69 W5        30.21F WCI  23

...WESTERN MONTANA...

CITY           SKY/WX    TMP DP  RH WIND       PRES   REMARKS
MISSOULA       PTCLDY    26  18  71 SE9       30.24S WCI  17

...NEIGHBORING CITIES...

CITY           SKY/WX    TMP DP  RH WIND       PRES   REMARKS
SEATTLE        CLOUDY    43  41  93 S6        30.09R FOG
CALGARY        MOCLDY     3  -2  78 SW3       30.12F



USA.gov is the U.S. government's official web portal to all federal, state and local government web resources and services.